Wind_Speed
24 24 25 26 26 25 26 25 24 23 21 19 19 20 19 19 19 20 20 18 17 16 17 18 18 18 17 17 17 18 18 17 17 16 16 16 16 16 17 17 17 17 17 17
24 23 24 25 25 25 25 25 25 23 22 20 20 21 21 20 20 20 20 20 19 18 18 19 19 19 18 17 17 18 18 18 18 18 18 18 17 17 18 18 18 18 18 18
25 24 24 25 25 26 25 25 25 24 22 22 22 22 22 22 22 22 22 22 21 20 20 20 20 20 19 19 19 19 20 20 19 19 19 19 19 19 19 19 18 18 19 19
25 25 25 24 24 26 26 26 26 25 24 23 24 24 24 24 24 23 22 22 23 23 22 21 20 21 21 21 21 21 22 21 21 21 20 21 22 21 20 20 20 20 20 20
25 26 26 24 23 24 26 27 27 27 26 26 24 24 26 27 26 24 24 23 24 24 23 22 21 22 22 22 22 23 23 23 23 23 22 23 23 23 23 22 22 22 22 22
26 27 27 26 25 25 27 27 27 27 28 28 27 27 26 26 27 26 26 26 26 25 23 23 22 22 22 23 23 24 24 24 24 24 24 24 24 24 23 23 23 23 23 23
27 28 28 27 26 26 28 28 28 28 29 29 29 29 28 28 28 27 26 27 27 27 25 24 24 24 24 24 24 24 25 25 25 25 25 25 25 25 24 24 24 24 24 24
29 29 29 27 26 27 27 28 28 29 29 29 30 29 29 30 29 28 27 27 27 27 26 26 25 25 25 25 26 27 26 26 25 25 26 26 26 25 25 25 25 25 25 25
29 30 29 28 28 28 29 28 28 28 28 29 30 32 31 30 31 31 30 29 29 28 28 28 27 27 26 26 27 28 27 27 26 27 27 27 27 27 27 27 27 27 27 26
29 29 29 29 29 29 30 30 30 30 30 31 32 31 32 33 32 31 31 30 30 30 29 29 29 29 28 27 28 28 28 28 28 28 29 29 29 29 29 28 28 27 27 27
30 31 31 30 30 30 29 30 32 31 31 32 32 32 32 32 33 33 32 31 31 31 30 30 30 30 30 29 28 29 29 29 30 30 30 29 30 29 29 29 29 28 29 28
30 30 32 31 31 31 31 31 32 32 32 31 31 31 32 32 33 33 33 32 30 31 31 31 31 30 30 30 29 29 29 29 30 30 30 30 29 29 29 30 30 30 30 30
28 30 31 32 32 32 33 33 33 32 32 32 31 32 32 32 32 33 33 33 33 31 30 31 31 31 30 30 30 30 30 30 31 31 30 30 30 30 30 30 30 30 30 30
28 29 31 32 33 33 34 34 34 34 33 32 31 32 33 33 32 32 32 33 33 33 32 32 31 31 31 31 31 31 31 31 31 31 31 30 30 30 29 30 30 30 30 31
27 28 29 29 31 32 33 33 33 33 33 31 32 32 33 32 32 33 33 34 33 31 30 30 30 31 31 32 32 31 31 31 31 31 31 30 29 29 30 30 31 30 30 30
26 27 27 28 29 30 31 31 32 32 32 32 33 33 33 32 32 33 34 34 32 31 30 30 31 31 31 32 31 31 31 31 31 31 31 30 30 31 31 32 31 31 30 30
24 25 26 27 27 28 29 29 30 32 32 32 32 33 34 34 33 32 32 33 33 31 30 29 29 30 31 31 31 31 31 31 31 30 31 31 32 32 32 32 32 31 31 31
23 24 26 27 28 29 30 31 30 30 31 31 31 32 32 32 33 32 32 32 30 30 30 31 31 31 31 31 31 31 31 31 31 31 31 32 32 32 32 31 31 31 31 31
22 23 24 25 27 28 28 28 28 29 30 31 30 29 29 30 30 30 30 29 29 29 29 29 30 30 31 31 31 31 31 31 30 31 31 31 31 31 31 31 31 31 32 31
20 21 22 23 24 25 26 26 26 26 27 27 27 27 27 28 28 28 28 28 29 29 28 28 29 29 30 29 29 29 30 29 29 30 30 30 30 30 30 31 31 31 30 29
19 20 20 21 22 23 24 25 25 25 25 25 25 26 26 27 28 28 28 28 28 28 29 29 28 26 26 27 28 28 29 28 27 27 28 29 29 29 29 29 28 28 28 28
18 18 19 20 21 21 21 22 22 22 22 23 24 25 25 26 26 26 27 27 28 28 28 28 27 28 29 28 27 27 28 28 27 27 27 27 27 27 26 26 26 26 27 27
18 18 18 18 19 19 19 20 20 21 22 22 23 24 24 25 25 26 26 25 25 26 26 26 26 27 27 28 28 27 27 27 27 26 26 26 26 25 25 25 25 25 26 26
19 19 19 18 18 18 18 18 18 19 20 20 21 22 22 22 23 25 25 25 26 26 26 26 26 26 26 26 27 27 26 25 25 25 24 24 24 23 23 23 24 24 24 25
18 18 18 18 18 17 17 17 17 18 18 19 19 20 20 21 22 22 23 24 25 25 26 26 26 26 26 25 24 24 24 23 23 23 22 22 23 23 24 24 24 24 25 26
17 17 17 17 16 16 17 17 17 18 18 18 18 19 19 20 20 21 22 23 24 24 25 25 25 24 24 25 24 23 23 22 22 22 22 22 23 23 23 23 24 24 25 26
17 17 17 16 16 16 16 17 17 17 17 17 17 18 18 19 19 19 19 20 21 22 22 22 22 22 22 22 23 23 22 22 22 22 22 22 22 22 23 24 24 25 26 27
Wind_Direction
235 234 233 233 233 234 237 242 246 249 252 255 257 261 267 269 271 274 271 268 271 275 279 280 280 279 279 278 277 278 280 281 282 283 283 284 286 289 291 292 290 291 292 292
235 235 235 235 234 234 236 241 246 248 250 252 256 258 264 267 268 270 273 272 271 272 276 279 280 280 281 278 277 276 277 279 281 283 285 286 286 290 293 293 292 291 292 292
237 235 235 236 237 235 237 241 246 248 250 251 254 256 260 264 267 268 270 271 273 274 277 279 279 279 279 278 276 276 277 278 279 281 285 286 286 288 290 292 291 289 291 292
240 238 239 239 239 238 241 243 246 249 252 254 253 255 259 263 265 266 270 271 274 273 274 275 276 278 279 278 276 276 277 277 279 282 283 284 285 285 288 289 290 289 291 292
240 240 241 241 241 240 242 243 247 251 253 253 256 258 259 261 263 266 270 272 274 273 271 272 275 277 279 278 276 275 275 275 277 279 281 282 283 283 285 286 286 287 289 290
239 241 243 242 243 244 246 248 250 253 254 254 256 259 259 259 262 264 267 270 274 272 272 273 274 275 275 276 275 274 273 274 275 277 279 280 282 283 283 283 285 286 286 287
242 243 244 246 247 248 251 251 252 254 256 256 257 258 259 260 262 264 267 271 274 274 274 275 275 273 272 272 272 273 275 274 275 276 277 278 280 281 280 282 283 285 285 286
244 246 247 248 251 252 255 255 255 256 258 258 257 256 257 259 261 264 267 270 272 273 273 275 274 273 272 272 272 272 274 276 276 275 276 276 277 278 279 282 283 285 286 286
247 248 250 250 252 253 255 257 258 259 259 258 259 258 258 260 263 265 267 268 269 271 272 274 275 273 271 270 271 273 273 273 273 274 275 274 275 276 278 280 282 283 285 286
249 249 252 254 253 254 257 259 260 261 260 260 261 262 262 263 265 266 268 268 267 269 271 271 273 273 274 273 273 272 272 273 273 274 274 273 273 275 278 280 281 282 283 284
252 252 254 254 255 255 258 259 261 263 264 265 265 263 263 263 264 267 268 268 267 268 268 269 270 270 271 271 272 272 274 275 275 276 276 275 275 275 276 278 280 282 283 283
253 254 255 255 257 256 257 261 261 262 264 266 266 264 263 264 265 266 266 267 268 266 265 266 267 267 269 270 271 273 275 276 277 276 276 277 276 274 275 277 279 280 282 283
256 259 258 259 259 259 260 261 263 264 264 266 266 265 263 264 265 266 266 266 267 267 266 266 266 267 268 268 269 271 273 275 276 275 276 277 277 277 278 278 279 280 282 282
259 261 262 263 261 260 261 261 262 263 266 265 264 264 264 264 265 266 266 267 267 268 268 266 265 266 267 267 269 271 272 273 273 275 276 276 278 278 277 278 279 280 281 282
263 263 264 265 264 262 261 261 261 263 266 264 263 265 265 265 264 266 267 268 268 268 267 266 264 265 266 267 269 270 271 272 273 275 275 276 278 278 277 278 279 280 280 280
265 264 265 264 264 264 263 261 262 264 264 263 265 266 266 266 266 265 266 268 268 266 266 266 265 264 265 267 269 270 271 272 274 275 274 275 277 278 278 278 278 279 280 280
264 263 263 263 263 264 266 265 264 264 264 266 266 266 266 267 267 266 267 269 268 265 264 264 264 266 267 267 268 269 271 272 273 274 273 274 275 275 277 278 278 278 279 279
267 266 266 266 267 268 268 268 269 268 266 266 265 264 263 264 264 264 266 268 267 266 264 263 263 265 267 267 268 268 269 272 273 272 272 274 274 274 276 277 278 278 279 280
269 268 268 268 270 272 272 271 271 272 271 267 266 265 263 262 263 264 266 266 265 265 265 265 265 265 267 269 270 269 269 271 273 272 273 274 274 275 276 277 278 279 280 279
274 273 272 273 273 272 272 273 272 273 272 269 266 265 263 263 263 263 265 264 265 266 267 267 269 269 268 268 269 270 270 270 272 272 271 272 275 278 278 279 279 278 278 278
280 279 278 277 277 275 274 273 273 274 272 269 268 268 266 266 265 265 265 265 264 266 267 269 270 270 269 270 271 271 271 269 271 270 271 274 277 279 279 279 278 278 278 279
284 281 279 279 279 278 276 275 274 273 271 271 271 272 269 266 265 266 266 266 266 266 268 269 267 269 270 271 273 272 272 271 271 272 272 275 278 280 281 279 278 279 279 281
284 283 281 280 278 277 276 277 277 276 274 273 273 273 271 268 266 266 267 266 266 267 268 269 268 269 269 270 271 272 272 271 271 272 273 275 278 280 280 280 279 278 280 282
284 283 282 280 277 278 280 282 282 280 277 275 274 274 272 270 270 269 269 268 267 268 269 269 270 269 269 271 271 271 272 272 272 273 274 275 276 277 279 280 280 280 282 284
285 285 282 279 276 277 280 283 284 285 282 278 277 276 274 273 272 271 270 269 267 266 266 266 268 268 268 268 269 271 271 272 273 272 272 273 275 277 280 281 281 282 284 285
288 284 282 283 284 283 284 286 287 289 287 283 278 277 277 275 272 271 271 269 267 265 265 266 266 267 268 268 268 270 271 270 270 270 272 274 277 279 280 282 284 285 286 286
289 287 285 286 286 286 287 287 288 289 289 285 281 278 278 276 275 275 275 274 273 271 270 268 266 267 268 269 268 269 271 271 271 272 274 277 279 281 282 284 285 286 287 288
Height
5811 5813 5815 5817 5819 5821 5822 5824 5826 5828 5830 5832 5833 5834 5834 5834 5835 5834 5834 5834 5835 5835 5835 5835 5835 5835 5834 5834 5834 5833 5832 5832 5831 5830 5829 5828 5827 5826 5824 5823 5822 5820 5819 5817
5805 5807 5809 5811 5813 5815 5817 5818 5819 5822 5824 5826 5826 5827 5828 5829 5829 5830 5830 5829 5829 5829 5829 5829 5829 5829 5829 5829 5828 5828 5827 5827 5826 5825 5824 5823 5822 5821 5820 5818 5816 5815 5814 5812
5799 5801 5803 5805 5808 5810 5811 5812 5814 5816 5819 5819 5820 5821 5822 5823 5824 5824 5824 5824 5824 5824 5824 5825 5824 5824 5824 5823 5823 5822 5822 5821 5821 5820 5819 5818 5817 5816 5814 5813 5811 5810 5808 5807
5793 5796 5797 5801 5801 5803 5804 5806 5807 5809 5811 5812 5813 5814 5815 5816 5817 5817 5818 5819 5819 5819 5819 5819 5819 5818 5818 5817 5817 5816 5816 5815 5815 5814 5814 5813 5812 5810 5809 5807 5805 5804 5803 5801
5786 5788 5790 5793 5795 5796 5797 5799 5801 5803 5804 5805 5806 5807 5808 5808 5809 5810 5811 5812 5812 5812 5812 5812 5812 5811 5811 5810 5810 5809 5809 5809 5808 5808 5807 5806 5805 5804 5803 5801 5799 5798 5796 5795
5779 5781 5783 5787 5789 5789 5791 5792 5794 5795 5797 5798 5799 5800 5801 5801 5802 5803 5804 5804 5804 5804 5804 5804 5804 5804 5803 5803 5802 5802 5801 5801 5801 5800 5800 5799 5798 5797 5795 5794 5793 5791 5789 5788
5772 5773 5776 5779 5781 5783 5784 5786 5786 5787 5789 5790 5791 5793 5794 5793 5794 5795 5796 5797 5797 5797 5797 5797 5797 5796 5796 5795 5794 5794 5794 5794 5793 5793 5792 5791 5790 5789 5788 5787 5785 5784 5782 5781
5764 5766 5771 5772 5774 5775 5776 5778 5779 5780 5781 5782 5783 5784 5785 5785 5786 5787 5787 5788 5789 5789 5789 5789 5789 5788 5788 5787 5787 5786 5786 5786 5785 5785 5784 5783 5783 5782 5780 5779 5778 5776 5775 5773
5758 5761 5762 5763 5765 5767 5768 5769 5771 5772 5773 5774 5775 5776 5777 5778 5779 5779 5779 5780 5780 5780 5780 5780 5780 5780 5779 5779 5778 5778 5777 5777 5777 5776 5776 5775 5774 5773 5772 5771 5770 5768 5767 5765
5750 5752 5753 5755 5757 5759 5760 5762 5763 5764 5765 5766 5766 5766 5768 5769 5769 5770 5770 5771 5771 5770 5771 5771 5771 5771 5770 5770 5770 5769 5769 5768 5768 5767 5766 5766 5765 5764 5763 5762 5761 5760 5758 5757
5742 5744 5746 5747 5749 5751 5752 5753 5753 5754 5755 5756 5757 5757 5758 5759 5759 5760 5760 5760 5760 5760 5760 5761 5761 5762 5762 5762 5761 5761 5761 5760 5759 5758 5757 5756 5755 5755 5754 5753 5752 5751 5750 5748
5734 5736 5737 5739 5741 5743 5744 5744 5744 5745 5746 5747 5747 5747 5748 5748 5749 5750 5750 5750 5749 5749 5749 5750 5751 5752 5752 5752 5752 5752 5751 5751 5750 5749 5748 5747 5746 5745 5744 5743 5742 5741 5740 5739
5726 5727 5729 5730 5732 5733 5734 5735 5736 5737 5738 5738 5738 5738 5739 5739 5740 5740 5740 5740 5739 5739 5739 5740 5741 5742 5742 5743 5743 5743 5742 5742 5741 5740 5739 5738 5737 5736 5735 5734 5733 5732 5730 5729
5719 5720 5720 5722 5723 5724 5725 5726 5726 5727 5728 5728 5728 5729 5729 5730 5730 5730 5730 5730 5729 5729 5729 5730 5731 5732 5732 5733 5733 5733 5733 5732 5732 5731 5730 5729 5728 5727 5726 5725 5724 5722 5721 5719
5711 5712 5713 5713 5714 5715 5715 5716 5717 5718 5718 5718 5719 5719 5719 5720 5720 5720 5720 5720 5720 5719 5719 5720 5721 5722 5723 5723 5723 5723 5723 5723 5722 5721 5720 5719 5718 5717 5716 5715 5714 5712 5711 5709
5704 5704 5704 5705 5705 5705 5706 5707 5707 5708 5708 5709 5709 5709 5710 5710 5710 5710 5710 5710 5710 5710 5710 5711 5712 5712 5713 5713 5713 5713 5713 5712 5712 5711 5710 5709 5708 5707 5706 5705 5704 5702 5701 5699
5696 5696 5697 5697 5697 5697 5697 5697 5697 5698 5698 5699 5699 5699 5699 5700 5700 5700 5700 5700 5700 5700 5700 5701 5702 5702 5702 5703 5703 5703 5703 5703 5702 5701 5701 5699 5698 5697 5696 5695 5694 5692 5691 5689
5688 5689 5689 5689 5689 5689 5689 5688 5688 5688 5688 5688 5689 5689 5689 5690 5690 5690 5690 5691 5690 5690 5691 5692 5693 5693 5693 5692 5693 5693 5693 5693 5692 5691 5691 5690 5688 5687 5686 5685 5683 5682 5680 5679
5681 5681 5680 5680 5680 5679 5679 5679 5679 5679 5679 5679 5679 5679 5680 5680 5680 5680 5681 5681 5681 5681 5681 5682 5682 5683 5683 5683 5683 5683 5683 5683 5682 5681 5680 5680 5678 5677 5676 5674 5673 5671 5670 5668
5674 5673 5673 5672 5672 5671 5671 5671 5670 5670 5670 5670 5670 5670 5670 5670 5671 5671 5672 5672 5673 5673 5673 5673 5673 5673 5673 5673 5673 5673 5673 5673 5672 5671 5670 5669 5668 5667 5666 5664 5663 5661 5659 5657
5667 5666 5666 5665 5664 5664 5663 5663 5663 5662 5662 5662 5662 5662 5662 5662 5662 5662 5662 5663 5664 5664 5664 5664 5664 5663 5663 5663 5663 5663 5663 5663 5662 5661 5660 5660 5659 5657 5656 5654 5653 5651 5649 5648
5661 5660 5659 5658 5657 5656 5656 5655 5655 5655 5654 5654 5654 5653 5653 5654 5654 5654 5654 5655 5655 5655 5655 5655 5655 5655 5655 5655 5654 5654 5654 5653 5653 5652 5651 5650 5649 5648 5647 5645 5644 5642 5641 5639
5655 5654 5653 5652 5651 5650 5650 5649 5648 5648 5648 5647 5647 5646 5646 5646 5646 5646 5646 5646 5646 5646 5646 5646 5646 5646 5646 5645 5645 5645 5645 5644 5643 5643 5642 5641 5640 5639 5638 5636 5635 5634 5632 5631
5649 5648 5647 5646 5645 5644 5644 5643 5642 5642 5641 5640 5639 5639 5638 5638 5638 5638 5638 5638 5638 5638 5638 5638 5638 5637 5637 5637 5637 5636 5636 5635 5635 5634 5633 5632 5632 5631 5630 5628 5627 5626 5624 5623
5643 5642 5641 5640 5639 5638 5638 5637 5636 5635 5634 5633 5632 5632 5631 5631 5631 5630 5630 5630 5630 5630 5630 5629 5629 5629 5629 5628 5628 5628 5627 5627 5626 5626 5625 5624 5624 5623 5622 5620 5619 5618 5616 5614
5637 5636 5635 5634 5633 5632 5632 5631 5630 5629 5627 5626 5626 5625 5624 5624 5623 5623 5623 5622 5622 5622 5621 5621 5621 5621 5620 5620 5620 5620 5619 5619 5618 5618 5617 5617 5616 5615 5614 5613 5611 5609 5608 5606
5632 5630 5629 5628 5627 5626 5626 5625 5624 5623 5622 5620 5619 5619 5618 5617 5616 5616 5616 5615 5614 5614 5614 5613 5613 5613 5613 5613 5612 5612 5612 5611 5611 5610 5610 5609 5608 5607 5606 5604 5603 5601 5599 5597